Home > Weather > Limassol > Past weeks

Flag for Cyprus Past Weather in Limassol, Cyprus — Yesterday and Last 2 Weeks

Now
73 °F

Clear.


Feels Like: 75 °F
Forecast: 62 / 91 °F
Wind: 3 mph from Northwest

Location: Akrotiri

Current Time: Aug 30, 2016 at 6:17:19 AM

Latest Report: Aug 30, 2016 at 4:50 AM


Visibility: 10 mi

Pressure: 29.83 "Hg

Humidity: 74%

Dew Point: 64 °F

Location of LimassolLocation

Past Weather in Limassol — Graph

°F

Limassol Temperature Yesterday

Maximum temperature yesterday: 86 °F (at 10:50 AM)
Minimum temperature yesterday: 73 °F (at 4:50 AM)
Average temperature yesterday: 80 °F

High & Low Weather Summary for the Past Weeks

 TemperatureHumidityPressure
High90 °F (Aug 18, 1:50 PM)100% (Aug 20, 5:50 AM)29.92 "Hg (Aug 20, 5:50 AM)
Low70 °F (Aug 21, 4:50 AM)43% (Aug 24, 10:50 AM)29.68 "Hg (Aug 17, 2:50 AM)
Average81 °F70%29.78 "Hg
* Reported Aug 15 4:50 AM — Aug 30 4:50 AM, Limassol, Weather by CustomWeather, © 2016

Note: Actual official high and low records may vary slightly from our data, if they occured in-between our weather recording intervals... More about our weather records

Advertising

Limassol Weather History for the Previous 24 Hours

Scroll right to see more
 ConditionsComfort  
Time TempWeatherWind HumidityBarometerVisibility
4:50 AM
Tue, Aug 30
73 °FClear.3 mph74%29.83 "Hg10 mi
3:50 AM73 °FClear.3 mph78%29.83 "Hg10 mi
2:50 AM75 °FClear.6 mph83%29.83 "Hg10 mi
1:50 AM77 °FClear.6 mph74%29.83 "Hg10 mi
12:50 AM77 °FClear.7 mph79%29.83 "Hg10 mi
11:50 PM
Mon, Aug 29
79 °FClear.7 mph74%29.83 "Hg10 mi
10:50 PM79 °FClear.10 mph74%29.83 "Hg10 mi
9:50 PM79 °FClear.14 mph74%29.83 "Hg10 mi
8:50 PM79 °FClear.14 mph74%29.83 "Hg10 mi
7:50 PM81 °FSunny.16 mph74%29.80 "Hg10 mi
6:50 PM81 °FPassing clouds.17 mph74%29.80 "HgN/A
5:50 PM82 °FPassing clouds.18 mph70%29.80 "HgN/A
4:50 PM84 °FPassing clouds.20 mph62%29.80 "HgN/A
3:50 PM84 °FPassing clouds.20 mph62%29.83 "HgN/A
2:50 PM84 °FPassing clouds.15 mph58%29.83 "HgN/A
1:50 PM86 °FPassing clouds.14 mph55%29.86 "HgN/A
12:50 PM86 °FPassing clouds.10 mph59%29.86 "HgN/A
11:50 AM86 °FPassing clouds.9 mph59%29.89 "HgN/A
10:50 AM86 °FPassing clouds.8 mph59%29.89 "HgN/A
9:50 AM84 °FPassing clouds.7 mph58%29.89 "HgN/A
8:50 AM82 °FPassing clouds.2 mph66%29.86 "HgN/A
7:50 AM77 °FSunny.2 mph69%29.86 "Hg10 mi
6:50 AM73 °FPassing clouds.2 mph69%29.86 "HgN/A
Weather by CustomWeather, © 2016

See weather overviewHow to use our weather pages